Location: St. Louis
(38.6270°N, 90.1994°W)
Time: 14:16:38
(UTC-06:00)

Transit 4A - Pass Details

Date: 09 December 2021
Orbit: 864 x 980 km, 66.8° (Epoch: 16 January)

Event Time Altitude Azimuth Distance (km) Brightness Sun altitude
Rises 03:06:47 0° 332° (NNW) 3,629 - -46.1°
Reaches altitude 10° 03:09:19 10° 333° (NNW) 2,694 - -45.6°
Maximum altitude 03:15:39 84° 62° (ENE) 983 - -44.4°
Drops below altitude 10° 03:22:03 10° 151° (SSE) 2,722 - -43.1°
Exits shadow 03:22:44 - 151° (SSE) 2,969 10.7 -43.0°
Sets 03:24:37 0° 152° (SSE) 3,667 11.3 -42.6°
